Dobrodošli na spletni strani vremenske postaje Senovo. Vse informacije so informativnega značaja, saj vremenska postaja ni del državne mreže meteoroloških postaj. AKTUALNIH OBVESTIL NI.


Sneg/Led Od: 23-02-2018 00:00 Do: 23:59 Opozorilo za: Sneg/Led Stopnja: Rumena info button

Pogled proti Armezu več informacij Pogled proti Armezu


Lisca več informacij Lisca


Radar strel več informacij blitzortung!


opozorilo za sneg/led več informacij rain snow radar


Obiščite še:

Template documentation
and downloads

And another site



Weather Underground, zgodovina - Tekstovno

Dnevni povzetek za Februar 23, 2018 Enote:  Angleško    Metrično   Obe
« Predhodni Dan
Naslednji Dan »
Dnevni Tedenski Mesečni Letni Po meri
  Trenutno: Višja: Nižja: Povprečje:
Temperatura: 1.4 °F TemperatureC °F -0.6 °F 0 °F
Točka rosišča: -2.4 °F DewpointC °F -3.5 °F -2.9 °F
Vlažnost: 76 % Humidity % 76 % 80 %
Hitrost vetra: 5.3 mph WindSpeedKMH mph 0.6 mph 4.2 mph
Sunki vetra: 12.2 mph WindSpeedGustKMH mph - -
Veter:East - - East
Zračni tlak: 1013.1 in PressurehPa in 1012.1 in -
Padavine: 1.3 in      
Historical Graphs
 
 
Tabelarni podarki za Februar 23, 2018
Čas Temperatura Točka rosišča Zračni tlak Veter Hitrost vetra Sunki vetra Vlažnost Intenziteta padavin (urna)
TemperatureC °F DewpointC °F PressurehPa in Calm     Humidity % HourlyPrecipMM in
00:04 -0.5 °F -3.5 °F 1013.1 in South 0.8 mph 3.2 mph 80 % 0.3 in
00:09 -0.5 °F -3.5 °F 1013.1 in SE 2.4 mph 7.2 mph 80 % 0.3 in
00:14 -0.5 °F -3.5 °F 1013.1 in ESE 3.5 mph 7.2 mph 80 % 0.3 in
00:19 -0.5 °F -3.5 °F 1013.1 in ESE 2.9 mph 6.9 mph 80 % 0.3 in
00:24 -0.5 °F -3.5 °F 1013.1 in East 3.2 mph 9.7 mph 80 % 0.3 in
00:29 -0.5 °F -3.3 °F 1013.1 in ENE 3.5 mph 9.7 mph 81 % 0.3 in
00:34 -0.5 °F -3.3 °F 1013.1 in ENE 2.9 mph 9.7 mph 81 % 0.3 in
00:39 -0.6 °F -3.4 °F 1013.1 in ESE 3.1 mph 6.1 mph 81 % 0.3 in
00:44 -0.6 °F -3.4 °F 1013.1 in ESE 3.4 mph 6.9 mph 81 % 0.3 in
00:49 -0.6 °F -3.4 °F 1013.1 in NE 2.9 mph 6.9 mph 81 % 0.3 in
00:54 -0.5 °F -3.3 °F 1013.1 in ENE 4.0 mph 6.4 mph 81 % 0.3 in
00:59 -0.5 °F -3.3 °F 1013.1 in ESE 3.4 mph 9.0 mph 81 % 0.3 in
01:04 -0.5 °F -3.3 °F 1013.1 in ENE 3.2 mph 9.0 mph 81 % 0.3 in
01:09 -0.5 °F -3.3 °F 1013.1 in ESE 4.3 mph 8.7 mph 81 % 0.3 in
01:14 -0.5 °F -3.2 °F 1013.1 in ESE 4.2 mph 10.1 mph 82 % 0.3 in
01:19 -0.6 °F -3.3 °F 1013.1 in ESE 3.9 mph 10.1 mph 82 % 0.3 in
01:24 -0.6 °F -3.3 °F 1013.1 in WNW 2.6 mph 6.4 mph 82 % 0.3 in
01:29 -0.6 °F -3.3 °F 1013.1 in South 2.3 mph 4.7 mph 82 % 0.3 in
01:34 -0.6 °F -3.3 °F 1013.1 in SSE 3.1 mph 6.4 mph 82 % 0.3 in
01:39 -0.6 °F -3.3 °F 1013.1 in SSE 2.9 mph 6.4 mph 82 % 0.3 in
01:44 -0.5 °F -3.2 °F 1013.1 in SE 2.7 mph 6.4 mph 82 % 0.3 in
01:49 -0.5 °F -3.2 °F 1013.1 in SE 3.7 mph 6.9 mph 82 % 0.3 in
01:54 -0.6 °F -3.3 °F 1013.1 in ESE 3.5 mph 6.9 mph 82 % 0.3 in
01:59 -0.6 °F -3.3 °F 1013.1 in NNE 2.4 mph 6.9 mph 82 % 0.3 in
02:04 -0.6 °F -3.3 °F 1013.1 in NW 2.4 mph 5.5 mph 82 % 0.3 in
02:09 -0.6 °F -3.3 °F 1013.1 in SSW 2.1 mph 5.5 mph 82 % 0.3 in
02:14 -0.6 °F -3.3 °F 1013.1 in SW 2.3 mph 6.4 mph 82 % 0.3 in
02:19 -0.6 °F -3.1 °F 1013.1 in WSW 3.5 mph 6.4 mph 83 % 0.3 in
02:24 -0.6 °F -3.1 °F 1013.1 in WSW 2.7 mph 5.5 mph 83 % 0.3 in
02:29 -0.6 °F -3.1 °F 1013.1 in East 2.6 mph 7.6 mph 83 % 0.3 in
02:34 -0.6 °F -3.1 °F 1013.1 in East 2.7 mph 7.9 mph 83 % 0.0 in
02:39 -0.5 °F -3.1 °F 1013.1 in ENE 3.4 mph 8.7 mph 83 % 0.0 in
02:44 -0.4 °F -2.9 °F 1013.1 in NNE 4.5 mph 8.7 mph 83 % 0.0 in
02:49 -0.4 °F -2.9 °F 1013.1 in NE 3.5 mph 7.6 mph 83 % 0.0 in
02:54 -0.4 °F -2.9 °F 1012.1 in ENE 4.0 mph 13.0 mph 83 % 0.0 in
02:59 -0.3 °F -2.8 °F 1012.1 in ENE 6.3 mph 15.4 mph 83 % 0.0 in
03:04 -0.3 °F -2.8 °F 1012.1 in ENE 6.3 mph 15.4 mph 83 % 0.0 in
03:09 -0.3 °F -2.8 °F 1012.1 in NE 5.8 mph 16.6 mph 83 % 0.0 in
03:14 -0.3 °F -2.8 °F 1012.1 in NE 5.8 mph 16.6 mph 83 % 0.0 in
03:19 -0.3 °F -2.8 °F 1012.1 in ENE 4.8 mph 12.2 mph 83 % 0.0 in
03:24 -0.3 °F -3.0 °F 1012.1 in NE 5.3 mph 14.3 mph 82 % 0.0 in
03:29 -0.3 °F -3.0 °F 1012.1 in ENE 6.3 mph 14.3 mph 82 % 0.0 in
03:34 -0.3 °F -3.0 °F 1012.1 in NE 6.0 mph 13.7 mph 82 % 0.0 in
03:39 -0.3 °F -3.0 °F 1012.1 in NE 5.3 mph 14.0 mph 82 % 0.0 in
03:44 -0.3 °F -3.0 °F 1012.1 in NE 5.8 mph 20.9 mph 82 % 0.0 in
03:49 -0.3 °F -3.0 °F 1012.1 in ENE 7.1 mph 20.9 mph 82 % 0.0 in
03:54 -0.3 °F -3.0 °F 1012.1 in ENE 7.7 mph 14.3 mph 82 % 0.0 in
03:59 -0.3 °F -3.0 °F 1012.1 in ENE 6.6 mph 14.3 mph 82 % 0.0 in
04:04 -0.4 °F -3.1 °F 1012.1 in ENE 4.8 mph 13.7 mph 82 % 0.0 in
04:09 -0.4 °F -3.3 °F 1012.1 in ENE 6.0 mph 18.0 mph 81 % 0.0 in
04:14 -0.4 °F -3.3 °F 1012.1 in NE 6.8 mph 18.0 mph 81 % 0.0 in
04:19 -0.3 °F -3.2 °F 1012.1 in NE 7.2 mph 17.2 mph 81 % 0.0 in
04:24 -0.4 °F -3.3 °F 1012.1 in NE 8.7 mph 17.2 mph 81 % 0.0 in
04:29 -0.4 °F -3.3 °F 1012.1 in NE 7.9 mph 16.6 mph 81 % 0.3 in
04:34 -0.4 °F -3.3 °F 1012.1 in ENE 7.1 mph 16.6 mph 81 % 0.3 in
04:39 -0.4 °F -3.3 °F 1012.1 in ENE 7.6 mph 16.6 mph 81 % 0.3 in
04:44 -0.5 °F -3.3 °F 1012.1 in NE 6.1 mph 13.0 mph 81 % 0.3 in
04:49 -0.5 °F -3.3 °F 1012.1 in NE 5.8 mph 14.0 mph 81 % 0.3 in
04:54 -0.5 °F -3.3 °F 1012.1 in NE 7.4 mph 14.0 mph 81 % 0.3 in
04:59 -0.5 °F -3.3 °F 1012.1 in ENE 7.7 mph 17.2 mph 81 % 0.3 in
05:04 -0.5 °F -3.3 °F 1012.1 in NE 6.3 mph 17.2 mph 81 % 0.3 in
05:09 -0.5 °F -3.3 °F 1012.1 in NE 5.3 mph 13.7 mph 81 % 0.3 in
05:14 -0.5 °F -3.3 °F 1012.1 in NNE 4.3 mph 13.7 mph 81 % 0.3 in
05:19 -0.5 °F -3.3 °F 1012.1 in NNE 3.2 mph 9.0 mph 81 % 0.3 in
05:24 -0.5 °F -3.3 °F 1012.1 in NE 4.5 mph 9.0 mph 81 % 0.3 in
05:29 -0.5 °F -3.3 °F 1012.1 in ENE 5.0 mph 9.7 mph 81 % 0.3 in
05:34 -0.5 °F -3.3 °F 1012.1 in NE 5.1 mph 9.7 mph 81 % 0.3 in
05:39 -0.5 °F -3.3 °F 1012.1 in NNE 5.8 mph 11.1 mph 81 % 0.3 in
05:44 -0.5 °F -3.3 °F 1012.1 in NNE 6.1 mph 14.0 mph 81 % 0.3 in
05:49 -0.5 °F -3.3 °F 1012.1 in NE 4.7 mph 14.0 mph 81 % 0.3 in
05:54 -0.5 °F -3.3 °F 1012.1 in ENE 4.5 mph 11.6 mph 81 % 0.3 in
05:59 -0.5 °F -3.3 °F 1012.1 in ENE 3.9 mph 11.6 mph 81 % 0.3 in
06:05 -0.5 °F -3.3 °F 1012.1 in NNE 3.1 mph 9.0 mph 81 % 0.3 in
06:09 -0.5 °F -3.3 °F 1012.1 in NNE 4.7 mph 9.3 mph 81 % 0.3 in
06:14 -0.5 °F -3.3 °F 1012.1 in NNE 5.1 mph 9.3 mph 81 % 0.3 in
06:19 -0.5 °F -3.3 °F 1012.1 in NE 5.3 mph 9.3 mph 81 % 0.3 in
06:24 -0.5 °F -3.3 °F 1012.1 in NE 4.8 mph 9.3 mph 81 % 0.3 in
06:29 -0.5 °F -3.3 °F 1012.1 in ENE 3.2 mph 7.2 mph 81 % 0.3 in
06:34 -0.5 °F -3.3 °F 1012.1 in ENE 2.4 mph 6.1 mph 81 % 0.3 in
06:39 -0.5 °F -3.3 °F 1012.1 in East 1.8 mph 6.1 mph 81 % 0.0 in
06:44 -0.5 °F -3.3 °F 1012.1 in ESE 2.1 mph 6.1 mph 81 % 0.0 in
06:49 -0.5 °F -3.3 °F 1012.1 in ENE 3.2 mph 6.4 mph 81 % 0.0 in
06:54 -0.5 °F -3.3 °F 1012.1 in ENE 3.9 mph 10.5 mph 81 % 0.0 in
06:59 -0.5 °F -3.3 °F 1012.1 in East 4.5 mph 10.5 mph 81 % 0.0 in
07:04 -0.5 °F -3.3 °F 1012.1 in NE 3.7 mph 7.9 mph 81 % 0.3 in
07:09 -0.5 °F -3.3 °F 1013.1 in NE 3.5 mph 7.9 mph 81 % 0.3 in
07:14 -0.5 °F -3.3 °F 1013.1 in ENE 4.0 mph 7.6 mph 81 % 0.3 in
07:19 -0.5 °F -3.2 °F 1013.1 in NE 2.6 mph 5.8 mph 82 % 0.3 in
07:24 -0.5 °F -3.2 °F 1014.1 in NE 2.4 mph 7.6 mph 82 % 0.3 in
07:29 -0.5 °F -3.2 °F 1014.1 in ENE 2.7 mph 7.6 mph 82 % 0.3 in
07:34 -0.5 °F -3.2 °F 1014.1 in South 1.9 mph 5.0 mph 82 % 0.3 in
07:40 -0.5 °F -3.2 °F 1013.1 in SE 3.2 mph 9.7 mph 82 % 0.3 in
07:45 -0.5 °F -3.2 °F 1013.1 in SE 4.8 mph 9.7 mph 82 % 0.3 in
07:50 -0.4 °F -3.1 °F 1013.1 in SE 3.7 mph 9.0 mph 82 % 0.3 in
07:55 -0.4 °F -3.1 °F 1013.1 in ESE 2.7 mph 6.1 mph 82 % 0.3 in
08:00 -0.4 °F -3.1 °F 1013.1 in SE 2.9 mph 9.3 mph 82 % 0.3 in
08:05 -0.4 °F -3.1 °F 1013.1 in SSE 3.7 mph 9.3 mph 82 % 0.0 in
08:10 -0.4 °F -3.1 °F 1013.1 in SW 2.7 mph 6.9 mph 82 % 0.0 in
08:15 -0.3 °F -3.0 °F 1013.1 in SSE 2.3 mph 5.8 mph 82 % 0.0 in
08:20 -0.3 °F -3.0 °F 1013.1 in SE 2.6 mph 5.8 mph 82 % 0.0 in
08:25 -0.3 °F -3.0 °F 1013.1 in SE 1.3 mph 4.0 mph 82 % 0.0 in
08:30 -0.2 °F -2.9 °F 1013.1 in SW 0.6 mph 5.0 mph 82 % 0.3 in
08:35 -0.2 °F -2.9 °F 1013.1 in ESE 2.1 mph 7.9 mph 82 % 0.3 in
08:40 -0.1 °F -2.8 °F 1013.1 in East 2.6 mph 7.9 mph 82 % 0.3 in
08:45 -0.1 °F -2.8 °F 1013.1 in ENE 3.2 mph 8.7 mph 82 % 0.3 in
08:50 -0.1 °F -2.8 °F 1013.1 in NE 4.8 mph 9.0 mph 82 % 0.3 in
08:55 -0.1 °F -2.8 °F 1012.1 in NNE 4.8 mph 9.7 mph 82 % 0.3 in
09:00 0.0 °F -2.7 °F 1012.1 in NE 3.9 mph 9.7 mph 82 % 0.3 in
09:05 0.0 °F -2.7 °F 1012.1 in ESE 3.2 mph 9.3 mph 82 % 0.3 in
09:10 -0.1 °F -2.8 °F 1012.1 in East 4.0 mph 8.7 mph 82 % 0.3 in
09:15 0.0 °F -2.7 °F 1012.1 in South 4.7 mph 8.7 mph 82 % 0.3 in
09:20 0.0 °F -2.7 °F 1012.1 in SSE 3.7 mph 6.4 mph 82 % 0.3 in
09:25 0.0 °F -2.7 °F 1013.1 in SE 3.4 mph 6.1 mph 82 % 0.3 in
09:30 0.0 °F -2.7 °F 1013.1 in NE 3.4 mph 5.8 mph 82 % 0.0 in
09:35 0.1 °F -2.6 °F 1013.1 in NE 3.7 mph 6.9 mph 82 % 0.0 in
09:40 0.1 °F -2.6 °F 1012.1 in ENE 4.3 mph 6.9 mph 82 % 0.0 in
09:45 0.1 °F -2.6 °F 1012.1 in ESE 5.0 mph 10.5 mph 82 % 0.0 in
09:50 0.1 °F -2.6 °F 1012.1 in East 6.1 mph 12.2 mph 82 % 0.0 in
09:55 0.2 °F -2.5 °F 1013.1 in ENE 5.3 mph 12.2 mph 82 % 0.0 in
10:00 0.2 °F -2.5 °F 1013.1 in ESE 3.1 mph 8.7 mph 82 % 0.0 in
10:05 0.3 °F -2.4 °F 1013.1 in East 3.4 mph 7.9 mph 82 % 0.0 in
10:10 0.3 °F -2.6 °F 1013.1 in ENE 4.5 mph 7.9 mph 81 % 0.0 in
10:15 0.3 °F -2.6 °F 1013.1 in ENE 4.5 mph 6.9 mph 81 % 0.0 in
10:20 0.4 °F -2.5 °F 1013.1 in East 4.7 mph 11.9 mph 81 % 0.0 in
10:25 0.4 °F -2.5 °F 1013.1 in ESE 4.7 mph 11.9 mph 81 % 0.0 in
10:30 0.5 °F -2.4 °F 1013.1 in East 4.0 mph 9.7 mph 81 % 0.0 in
10:35 0.6 °F -2.3 °F 1013.1 in ENE 3.2 mph 6.9 mph 81 % 0.0 in
10:40 0.8 °F -2.1 °F 1013.1 in East 3.2 mph 6.1 mph 81 % 0.0 in
10:45 0.9 °F -2.0 °F 1013.1 in East 4.0 mph 11.6 mph 81 % 0.0 in
10:50 0.9 °F -2.0 °F 1013.1 in East 5.5 mph 16.6 mph 81 % 0.0 in
10:55 1.0 °F -1.9 °F 1014.1 in East 6.1 mph 16.6 mph 81 % 0.0 in
11:00 1.0 °F -2.1 °F 1014.1 in East 4.3 mph 10.5 mph 80 % 0.0 in
11:05 1.1 °F -1.9 °F 1014.1 in ENE 3.7 mph 10.5 mph 80 % 0.0 in
11:10 1.3 °F -1.8 °F 1014.1 in East 3.7 mph 6.1 mph 80 % 0.0 in
11:15 1.4 °F -1.7 °F 1014.1 in East 3.1 mph 10.1 mph 80 % 0.0 in
11:20 1.4 °F -1.7 °F 1014.1 in ESE 3.7 mph 10.1 mph 80 % 0.0 in
11:25 1.4 °F -1.7 °F 1014.1 in ESE 3.7 mph 8.7 mph 80 % 0.0 in
11:30 1.4 °F -1.7 °F 1014.1 in East 3.5 mph 13.0 mph 80 % 0.0 in
11:35 1.3 °F -1.9 °F 1014.1 in East 5.5 mph 13.0 mph 79 % 0.0 in
11:40 1.3 °F -1.9 °F 1013.1 in East 5.8 mph 12.2 mph 79 % 0.0 in
11:45 1.3 °F -1.9 °F 1013.1 in East 4.5 mph 9.7 mph 79 % 0.0 in
11:50 1.4 °F -1.8 °F 1013.1 in East 4.2 mph 9.3 mph 79 % 0.0 in
11:55 1.4 °F -1.8 °F 1013.1 in East 5.5 mph 13.0 mph 79 % 0.0 in
12:01 1.4 °F -1.8 °F 1013.1 in East 6.0 mph 13.0 mph 79 % 0.0 in
12:05 1.4 °F -1.8 °F 1013.1 in East 4.2 mph 9.3 mph 79 % 0.0 in
12:11 1.4 °F -1.8 °F 1013.1 in ENE 4.0 mph 12.6 mph 79 % 0.0 in
12:16 1.5 °F -1.9 °F 1013.1 in East 5.8 mph 12.6 mph 78 % 0.0 in
12:21 1.5 °F -1.9 °F 1013.1 in ENE 5.6 mph 10.5 mph 78 % 0.0 in
12:26 1.5 °F -1.9 °F 1013.1 in ENE 4.5 mph 9.0 mph 78 % 0.0 in
12:31 1.5 °F -1.9 °F 1013.1 in East 4.7 mph 9.0 mph 78 % 0.0 in
12:36 1.4 °F -2.0 °F 1013.1 in ENE 5.1 mph 9.3 mph 78 % 0.0 in
12:41 1.2 °F -2.4 °F 1014.1 in NE 5.1 mph 9.7 mph 77 % 0.0 in
12:46 1.2 °F -2.4 °F 1014.1 in ENE 4.8 mph 9.7 mph 77 % 0.0 in
12:51 1.1 °F -2.5 °F 1014.1 in ENE 4.7 mph 11.9 mph 77 % 0.0 in
12:56 1.1 °F -2.5 °F 1014.1 in NE 5.8 mph 11.9 mph 77 % 0.0 in
13:01 1.1 °F -2.5 °F 1014.1 in ENE 5.3 mph 10.5 mph 77 % 0.0 in
13:06 1.3 °F -2.4 °F 1014.1 in East 4.2 mph 14.0 mph 76 % 0.0 in
13:11 1.4 °F -2.4 °F 1014.1 in East 4.7 mph 14.0 mph 76 % 0.0 in
13:16 1.4 °F -2.4 °F 1014.1 in East 5.3 mph 9.0 mph 76 % 0.0 in
13:21 1.4 °F -2.4 °F 1014.1 in East 6.0 mph 10.1 mph 76 % 0.0 in
13:26 1.4 °F -2.4 °F 1013.1 in East 5.3 mph 10.1 mph 76 % 0.0 in
13:31 1.4 °F -2.4 °F 1013.1 in East 5.3 mph 12.2 mph 76 % 0.0 in
Vremenska postaja Senovo
Podatki zbrani iz Weather Underground - 2.25 mb

Script developed by  Jim McMurry - jmcmurry@mwt.net Adapted for the template by  Wim van der Kuil - Leuven-Template.eu

Vremenski podatki so objavljeni na:

European Weather Network

WeatherCloud

Weather Underground

AWEKAS

HAMweather, WeatherForYou, PWS Weather

MapView

Geostik

Slovenia weather network

Oprema, ki se uporablja:

Vremenski program
Cumulus

Vremenski server
Asus

Cumulus

Asus